Weather in Chikoy

Russia / Republic of Buryatia     50°16′19″N   106°54′51″E
temp.,
°C
wind,
m/s
gust,
m/s
humid.,
%
clouds,
%
prec.,
mm/h
press.,
hPa
HPBL,
m
27 february, sat
sat2723:00−13nnw41378100 0.0 1020638
02:00−16n51489100 0.1 1023801
05:00−18nnw2777100 0.1 1030268
08:00−21nw118775 0.1 103520
11:00−16wnw13700 0.0 1037526
14:00−14nw346032 0.0 10351103
17:00−14n226559 0.0 1035435
20:00−20e117940 0.0 103820
28 february, sun
sun2823:00−21se228188 0.0 104020
02:00−22se228493 0.0 104020
05:00−24ese018763 0.0 104120
08:00−25s118831 0.0 104220
11:00−19s117879 0.0 1041259
14:00−16sw117440 0.0 1038319
17:00−15ssw11790 0.0 1038211
20:00−21sse11870 0.0 104020
1 march, mon
mon123:00−21se228597 0.0 104120
02:00−21sse128498 0.0 104020
05:00−24s118845 0.0 103920
08:00−25sse128723 0.0 103920
11:00−17sse24740 0.0 1034330
14:00−11s24640 0.0 1029609
17:00−11s12740 0.0 1026260
20:00−16se22811 0.0 102620
2 march, tue
tue223:00−16se338096 0.0 102432
02:00−15sse227997 0.0 102121
05:00−18sse227874 0.0 101920
08:00−18sse227950 0.0 101820
11:00−10sse3570100 0.0 1014273
14:00−5sse3568100 0.0 1011437
17:00−5nnw1179100 0.0 101082
20:00−8e1192100 0.4 101321
3 march, wed
wed323:00−11sse229178 0.2 101521
02:00−12sse229174 0.2 101421
05:00−13sse228761 0.0 101420
08:00−16s118831 0.0 101520
11:00−9wnw007619 0.0 1013222
14:00−6wnw117210 0.0 1011374
17:00−6nw128128 0.0 1011168
20:00−11n128964 0.0 101326